Météo par heure à Aljezur Municipality

Ce jour, 14 Mai, Vendredi

Heure Température Précipitation Vent Pression Humidité
00:00 +14°C° 0 mm 5 m/s 755 mmHg 95%
01:00 +13°C° 0 mm 4 m/s 755 mmHg 96%
02:00 +13°C° 0 mm 4 m/s 755 mmHg 96%
03:00 +12°C° 0 mm 4 m/s 755 mmHg 96%
04:00 +12°C° 0 mm 4 m/s 755 mmHg 96%
05:00 +12°C° 0 mm 4 m/s 755 mmHg 96%
06:00 +14°C° 0 mm 4 m/s 755 mmHg 84%
07:00 +16°C° 0 mm 5 m/s 755 mmHg 72%
08:00 +20°C° 0 mm 5 m/s 756 mmHg 60%
09:00 +21°C° 0 mm 5 m/s 755 mmHg 56%
10:00 +22°C° 0 mm 6 m/s 755 mmHg 51%
11:00 +24°C° 0 mm 6 m/s 755 mmHg 47%
12:00 +24°C° 0 mm 6 m/s 755 mmHg 47%
13:00 +24°C° 0 mm 7 m/s 755 mmHg 48%
14:00 +24°C° 0 mm 7 m/s 754 mmHg 49%
15:00 +23°C° 0 mm 6 m/s 754 mmHg 53%
16:00 +22°C° 0 mm 6 m/s 754 mmHg 57%
17:00 +21°C° 0 mm 6 m/s 754 mmHg 60%
18:00 +19°C° 0 mm 6 m/s 754 mmHg 71%
19:00 +16°C° 0 mm 5 m/s 754 mmHg 81%
20:00 +14°C° 0 mm 5 m/s 755 mmHg 91%
21:00 +14°C° 0 mm 5 m/s 755 mmHg 92%
22:00 +14°C° 0 mm 5 m/s 754 mmHg 92%
23:00 +13°C° 0 mm 5 m/s 754 mmHg 93%

Demain, 15 Mai, Samedi

Heure Température Précipitation Vent Pression Humidité
00:00 +13°C° 0 mm 5 m/s 754 mmHg 93%
01:00 +13°C° 0 mm 4 m/s 754 mmHg 93%
02:00 +12°C° 0 mm 4 m/s 753 mmHg 93%
03:00 +12°C° 0 mm 4 m/s 754 mmHg 93%
04:00 +12°C° 0 mm 4 m/s 754 mmHg 92%
05:00 +12°C° 0 mm 3 m/s 754 mmHg 91%
06:00 +15°C° 0 mm 4 m/s 754 mmHg 77%
07:00 +19°C° 0 mm 4 m/s 754 mmHg 63%
08:00 +22°C° 0 mm 4 m/s 754 mmHg 48%
09:00 +25°C° 0 mm 4 m/s 754 mmHg 44%
10:00 +26°C° 0 mm 4 m/s 754 mmHg 39%
11:00 +28°C° 0 mm 5 m/s 754 mmHg 35%
12:00 +28°C° 0 mm 5 m/s 754 mmHg 37%
13:00 +28°C° 0 mm 6 m/s 753 mmHg 40%
14:00 +27°C° 0 mm 6 m/s 753 mmHg 42%
15:00 +26°C° 0 mm 6 m/s 753 mmHg 47%
16:00 +24°C° 0 mm 6 m/s 753 mmHg 53%
17:00 +22°C° 0 mm 6 m/s 753 mmHg 59%
18:00 +20°C° 0 mm 6 m/s 753 mmHg 69%
19:00 +17°C° 0 mm 5 m/s 753 mmHg 80%
20:00 +15°C° 0 mm 5 m/s 754 mmHg 91%
21:00 +15°C° 0 mm 5 m/s 754 mmHg 92%
22:00 +15°C° 0 mm 4 m/s 753 mmHg 92%
23:00 +15°C° 0 mm 4 m/s 753 mmHg 93%

Après-demain, 16 Mai, Dimanche

Heure Température Précipitation Vent Pression Humidité
00:00 +15°C° 0 mm 4 m/s 753 mmHg 93%
01:00 +14°C° 0 mm 4 m/s 753 mmHg 92%
02:00 +14°C° 0 mm 4 m/s 753 mmHg 92%
03:00 +14°C° 0 mm 4 m/s 753 mmHg 92%
04:00 +14°C° 0 mm 4 m/s 752 mmHg 91%
05:00 +14°C° 0 mm 4 m/s 752 mmHg 91%
06:00 +18°C° 0 mm 4 m/s 753 mmHg 79%
07:00 +21°C° 0 mm 5 m/s 753 mmHg 66%
08:00 +23°C° 0 mm 5 m/s 754 mmHg 54%
09:00 +26°C° 0 mm 5 m/s 753 mmHg 49%
10:00 +27°C° 0 mm 5 m/s 753 mmHg 45%
11:00 +28°C° 0 mm 6 m/s 753 mmHg 41%
12:00 +28°C° 0 mm 6 m/s 753 mmHg 44%
13:00 +27°C° 0 mm 7 m/s 753 mmHg 47%
14:00 +26°C° 0 mm 8 m/s 753 mmHg 50%
15:00 +24°C° 0 mm 8 m/s 753 mmHg 56%
16:00 +23°C° 0 mm 8 m/s 753 mmHg 61%
17:00 +22°C° 0 mm 8 m/s 753 mmHg 67%
18:00 +20°C° 0 mm 7 m/s 753 mmHg 74%
19:00 +18°C° 0 mm 7 m/s 754 mmHg 81%
20:00 +16°C° 0 mm 6 m/s 754 mmHg 87%
21:00 +16°C° 0 mm 6 m/s 754 mmHg 89%
22:00 +16°C° 0 mm 6 m/s 754 mmHg 91%
23:00 +15°C° 0 mm 6 m/s 753 mmHg 92%

17 Mai, Lundi

Heure Température Précipitation Vent Pression Humidité
00:00 +15°C° 0 mm 5 m/s 754 mmHg 93%
01:00 +15°C° 0 mm 5 m/s 754 mmHg 94%
02:00 +14°C° 0 mm 5 m/s 754 mmHg 94%
03:00 +14°C° 0 mm 5 m/s 754 mmHg 92%
04:00 +14°C° 0 mm 5 m/s 754 mmHg 90%
05:00 +13°C° 0 mm 5 m/s 755 mmHg 87%
06:00 +16°C° 0 mm 6 m/s 755 mmHg 74%
07:00 +19°C° 0 mm 6 m/s 755 mmHg 61%
08:00 +22°C° 0 mm 6 m/s 755 mmHg 47%
09:00 +23°C° 0 mm 7 m/s 756 mmHg 44%
10:00 +24°C° 0 mm 7 m/s 756 mmHg 41%
11:00 +26°C° 0 mm 7 m/s 756 mmHg 37%
12:00 +26°C° 0 mm 7 m/s 756 mmHg 40%
13:00 +24°C° 0 mm 8 m/s 756 mmHg 42%
14:00 +23°C° 0 mm 9 m/s 755 mmHg 44%
15:00 +23°C° 0 mm 8 m/s 755 mmHg 45%
16:00 +22°C° 0 mm 8 m/s 756 mmHg 46%
17:00 +21°C° 0 mm 8 m/s 756 mmHg 48%
18:00 +18°C° 0 mm 8 m/s 756 mmHg 50%
19:00 +17°C° 0 mm 7 m/s 756 mmHg 53%
20:00 +15°C° 0 mm 7 m/s 757 mmHg 56%
21:00 +14°C° 0 mm 6 m/s 757 mmHg 58%
22:00 +13°C° 0 mm 6 m/s 757 mmHg 60%
23:00 +11°C° 0 mm 6 m/s 757 mmHg 63%

18 Mai, Mardi

Heure Température Précipitation Vent Pression Humidité
00:00 +11°C° 0 mm 6 m/s 756 mmHg 63%
01:00 +10°C° 0 mm 6 m/s 756 mmHg 63%
02:00 +9°C° 0 mm 6 m/s 756 mmHg 63%
03:00 +9°C° 0 mm 5 m/s 756 mmHg 64%
04:00 +9°C° 0 mm 5 m/s 756 mmHg 64%
05:00 +9°C° 0 mm 5 m/s 756 mmHg 65%
06:00 +14°C° 0 mm 5 m/s 757 mmHg 54%
07:00 +17°C° 0 mm 5 m/s 757 mmHg 43%
08:00 +22°C° 0 mm 5 m/s 757 mmHg 32%
09:00 +25°C° 0 mm 5 m/s 757 mmHg 28%
10:00 +27°C° 0 mm 5 m/s 756 mmHg 23%
11:00 +29°C° 0 mm 5 m/s 756 mmHg 19%
12:00 +29°C° 0 mm 5 m/s 756 mmHg 22%
13:00 +29°C° 0 mm 5 m/s 756 mmHg 24%
14:00 +28°C° 0 mm 6 m/s 756 mmHg 27%
15:00 +27°C° 0 mm 6 m/s 756 mmHg 32%
16:00 +24°C° 0 mm 6 m/s 756 mmHg 37%
17:00 +23°C° 0 mm 7 m/s 756 mmHg 41%
18:00 +21°C° 0 mm 7 m/s 756 mmHg 48%
19:00 +19°C° 0 mm 6 m/s 756 mmHg 54%
20:00 +16°C° 0 mm 6 m/s 756 mmHg 61%
21:00 +16°C° 0 mm 6 m/s 756 mmHg 59%
22:00 +15°C° 0 mm 5 m/s 756 mmHg 56%
23:00 +15°C° 0 mm 5 m/s 756 mmHg 54%

19 Mai, Mercredi

Heure Température Précipitation Vent Pression Humidité
00:00 +15°C° 0 mm 5 m/s 756 mmHg 57%
01:00 +14°C° 0 mm 5 m/s 756 mmHg 61%
02:00 +14°C° 0 mm 5 m/s 755 mmHg 64%
03:00 +14°C° 0 mm 5 m/s 755 mmHg 66%
04:00 +14°C° 0 mm 5 m/s 755 mmHg 69%
05:00 +14°C° 0 mm 5 m/s 755 mmHg 71%
06:00 +17°C° 0 mm 5 m/s 756 mmHg 61%
07:00 +21°C° 0 mm 5 m/s 756 mmHg 50%
08:00 +25°C° 0 mm 5 m/s 756 mmHg 39%
09:00 +27°C° 0 mm 6 m/s 756 mmHg 35%
10:00 +29°C° 0 mm 6 m/s 755 mmHg 31%
11:00 +32°C° 0 mm 6 m/s 755 mmHg 27%
12:00 +30°C° 0 mm 7 m/s 755 mmHg 30%
13:00 +30°C° 0 mm 7 m/s 755 mmHg 32%
14:00 +31°C° 0 mm 8 m/s 754 mmHg 35%
15:00 +29°C° 0 mm 8 m/s 754 mmHg 39%
16:00 +28°C° 0 mm 8 m/s 754 mmHg 43%
17:00 +27°C° 0 mm 8 m/s 754 mmHg 47%
18:00 +24°C° 0 mm 8 m/s 754 mmHg 49%
19:00 +22°C° 0 mm 7 m/s 755 mmHg 52%
20:00 +20°C° 0 mm 7 m/s 755 mmHg 54%
21:00 +19°C° 0 mm 6 m/s 755 mmHg 58%
22:00 +17°C° 0 mm 6 m/s 755 mmHg 63%
23:00 +15°C° 0 mm 6 m/s 755 mmHg 68%
Voir plus

Nous avons besoin de votre consentement

Meteoprog et ses fournisseurs de services peuvent stocker et accéder à des données personnelles telles que des cookies, des identifiants d'appareils ou d'autres technologies similaires sur votre appareil et traiter ces données pour personnaliser le contenu et les publicités, ainsi que pour fournir des fonctionnalités de médias sociaux et analyser le trafic.

  • Stocker et/ou accéder à des informations sur votre appareil

    Des cookies, des identifiants d'appareils ou d'autres informations peuvent être stockés ou accessibles sur votre appareil aux fins indiquées ci-dessus.

  • Annonces et contenus personnalisés, mesure des annonces et des contenus, connaissance de l'audience et développement de produits

    Les annonces et le contenu peuvent être personnalisés en fonction d'un profil. D'autres données peuvent être ajoutées pour mieux personnaliser les annonces et le contenu. Les performances des publicités et du contenu peuvent être mesurées. Il est possible d'obtenir des informations sur le public qui a vu les publicités et le contenu. Ces données peuvent être utilisées pour développer ou améliorer l'expérience de l'utilisateur, les systèmes et les logiciels.

En cliquant sur "J'accepte", vous autorisez l'utilisation de cookies, des identifiants d'appareils, des balises web ou d'autres technologies similaires. Vos paramètres peuvent être modifiés dans le navigateur de votre appareil.

Dans certains cas, des intérêts légitimes peuvent être invoqués plutôt qu'un consentement. Vous pouvez en savoir plus à ce sujet dans notre Politique de confidentialité et de cookies.